loading
|

TITAN 3C TRANSTAGE DEB, 2050

Orbit data source: Space-Track

TITAN 3C TRANSTAGE DEB, 2050 is space debris in LEO originally from a launch on Fri, 15 Oct 1965 UTC launched from the Air Force Eastern Test Range (AFETR). Debris objects in space refer to the collection of defunct objects orbiting the Earth. Examples of debris include non-operational satellites, rocket bodies, and fragments generated from explosions, collisions, or faulty payload assembly.

Loading next visibility...
Next conjunction unknown
Loading greatness...
TITAN 3C TRANSTAGE DEB details
Identifier
2050, 1965-082JL
Orbit
LEO
Last TLE update13 hours ago
Origin
Flag of USUSAF SSD (US)
ManufacturerUnknown
MissionSpacecraft
Bus & MotorUnknown bus, Unknown motor
MassUnknown
Launch date (UTC)
1965-10-15 (59 years ago)
Launch vehicleUnknown
Launch site
Air Force Eastern Test Range (AFETR)
Object type
Payload
Rocket body
Debris
Shape & HBRUnknown
Radar Cross SectionSmall (<0.1 m²)

Expand to show TLE details & history

TLE from 13 hours ago
0 TITAN 3C TRANSTAGE DEB
1 02050U 65082JL  24285.48060348  .00006801  00000-0  16491-2 0  9990
2 02050  32.2632 198.5976 0085105  62.3174 298.6076 14.49798511 69433
Epoch: 2024-10-11T11:32Z
Definitive object data (Epoch: 2024-10-11T11:32:04.14Z)
Latitude-0°
Longitude5.03016°
Altitude696.433 km
Speed7.525 km/s
True Right ascension13h 14m 23s
True Declination0° 00' 00"
Sunlit
Object was in daylight at TLE epoch
Predictive object data (real-time)
Latitude-20.71298°
Longitude-34.68182°
Altitude748.377 km
Speed7.472 km/s
Apparent Right ascension09h 04m 41s
Apparent Declination-32° 30' 51"
Sunlit
Object is in daylight
Predictive observer data (real-time)
Local Sidereal Time18:57:50
Azimuth276.187° WNW
Elevation-63.523°
Doppler factor1
Orbital elements
Apogee790.355 km
Perigee669.37 km
Semi-major axis7,107.999 km
Eccentricity0.0085105
Inclination32.2632°
RAAN198.5976°
Arg. of periapsis62.3174°
True anomaly297.74708°
Mean anomaly298.6076°
Eccentric anomaly298.17777°
Mean motion3.62178 °/min
BSTAR0.0016491
Period99.4 mins
No data available

TITAN 3C TRANSTAGE DEB Visibility forecast

Observer location: 39.9160978°, -105.1181434

Span
Click to sort rows by Start time (UTC) header in descending order
Start Az.
Max El. time (UTC)
Max El. Az.
Max El.
End time (UTC)
End Az.
7 mins2024-10-12 01:07:58.361Z242.685° WSW2024-10-12 01:11:58.361Z174.02° S27.655°2024-10-12 01:14:58.361Z128.117° SE
5 mins2024-10-12 02:53:58.361Z231.987° WSW2024-10-12 02:55:58.361Z202.463° SSW18.779°2024-10-12 02:58:58.361Z159.87° S
7 mins2024-10-12 22:29:58.361Z219.18° SW2024-10-12 22:33:58.361Z159.98° S22.856°2024-10-12 22:36:58.361Z116.258° SE
6 mins2024-10-13 00:15:58.361Z228.532° WSW2024-10-13 00:17:58.361Z190.762° SSW28.235°2024-10-13 00:21:58.361Z121.967° SE